TimePDT,TemperatureF,Dew PointF,Humidity,Sea Level PressureIn,VisibilityMPH,Wind Direction,Wind SpeedMPH,Gust SpeedMPH,PrecipitationIn,Events,Conditions,WindDirDegrees,DateUTC
12:53 AM,61.0,46.0,58,30.13,10.0,WSW,5.8,-,N/A,,Clear,240,2012-09-30 07:53:00
1:53 AM,57.9,44.1,60,30.14,10.0,Calm,Calm,-,N/A,,Clear,0,2012-09-30 08:53:00
2:53 AM,53.1,42.1,66,30.16,10.0,Calm,Calm,-,N/A,,Clear,0,2012-09-30 09:53:00
3:53 AM,48.0,39.9,74,30.18,10.0,SSE,3.5,-,N/A,,Clear,160,2012-09-30 10:53:00
4:53 AM,46.9,39.9,77,30.19,10.0,SSE,3.5,-,N/A,,Clear,150,2012-09-30 11:53:00
5:53 AM,46.9,39.0,74,30.20,10.0,South,4.6,-,N/A,,Clear,180,2012-09-30 12:53:00
7:53 AM,48.0,39.9,74,30.24,10.0,Calm,Calm,-,N/A,,Clear,0,2012-09-30 14:53:00
8:53 AM,59.0,41.0,51,30.26,10.0,Calm,Calm,-,N/A,,Clear,0,2012-09-30 15:53:00
9:53 AM,63.0,42.1,46,30.28,10.0,WNW,4.6,-,N/A,,Clear,300,2012-09-30 16:53:00
10:53 AM,66.0,42.1,42,30.28,10.0,NW,3.5,-,N/A,,Clear,320,2012-09-30 17:53:00
11:53 AM,70.0,43.0,38,30.28,10.0,West,4.6,-,N/A,,Clear,280,2012-09-30 18:53:00
12:53 PM,73.0,37.9,28,30.27,10.0,Calm,Calm,-,N/A,,Clear,0,2012-09-30 19:53:00
1:53 PM,75.0,36.0,24,30.25,10.0,NNE,3.5,-,N/A,,Clear,20,2012-09-30 20:53:00
2:53 PM,77.0,35.1,22,30.24,10.0,North,4.6,-,N/A,,Clear,360,2012-09-30 21:53:00
3:53 PM,78.1,42.1,28,30.23,10.0,Calm,Calm,-,N/A,,Clear,0,2012-09-30 22:53:00
4:53 PM,78.1,42.1,28,30.22,10.0,Calm,Calm,-,N/A,,Clear,0,2012-09-30 23:53:00
5:53 PM,77.0,43.0,30,30.21,10.0,Calm,Calm,-,N/A,,Clear,0,2012-10-01 00:53:00
6:53 PM,64.0,43.0,46,30.23,10.0,Calm,Calm,-,N/A,,Clear,0,2012-10-01 01:53:00
7:53 PM,63.0,43.0,48,30.23,10.0,Calm,Calm,-,N/A,,Clear,0,2012-10-01 02:53:00
8:53 PM,55.9,43.0,62,30.24,10.0,South,5.8,-,N/A,,Clear,180,2012-10-01 03:53:00
9:53 PM,55.9,39.0,53,30.25,10.0,Calm,Calm,-,N/A,,Clear,0,2012-10-01 04:53:00
10:53 PM,50.0,37.9,63,30.25,10.0,SSE,3.5,-,N/A,,Clear,160,2012-10-01 05:53:00
11:53 PM,48.0,39.0,71,30.25,10.0,SSE,3.5,-,N/A,,Clear,150,2012-10-01 06:53:00